FENGYUN 1C DEB

Satellite information

Favourite Embed

Satellite Type and Status

DEBRISIN ORBIT

Key statistics

Satellite FENGYUN 1C DEB at a glance.

Uptime

9556

Days in orbit

Revolutions

≈ 14.2

Per day

Orbit

SSO

Sun Synchronous Orbit

Inclination

98.6

Latest

Satellite identification and parameters

Extended collection of information and parameters for FENGYUN 1C DEB.

Object identification

Identified? True

Debris? True

Object name: FENGYUN 1C DEB

International designator: 1999-025CQQ

Object number (NORAD): 32098

Object ID (CCSDS): 32098

Country: PEOPLES REPUBLIC OF CHINA (PRC)

Current information (Y/N): Y

RCS size: SMALL

Orbital parameters

Period: 101.417 minutes

Inclination: 98.6007 deg

SMA: 7203.894 km

Apoapsis: 965.959 km

Periapsis: 685.56 km

RAAN: 177.0359 deg

Eccentricy: 0.0194616

Argument of periapsis: 241.4186 deg

Mean anomaly: 116.7286 deg

Mean motion: 14.19880349 rev/day

Mean motion (dot): 0.00000286 rev/day2

B* drag term: 0.00012959 1/REarth

Two-line elements (TLE)

Creation date: June 29, 2025, 5:39 p.m.

Reference frame: TEME

Reference center: EARTH

Epoch: June 29, 2025, 4:54 a.m. UTC

TLE line 0: 0 FENGYUN 1C DEB

TLE line 1: 1 32098U 99025CQQ 25180.20434915 .00000286 00000-0 12959-3 0 9996

TLE line 2: 2 32098 98.6007 177.0359 0194616 241.4186 116.7286 14.19880349618642

Live tracking on map

Real-time ground track for satellite FENGYUN 1C DEB.

In-orbit conjunctions

A list of the most updated potential collisions computed for object FENGYUN 1C DEB.

Target Orbit TCA Probability of collision Miss distance Type
METEOR 2-20 DEB LEO 2025-02-25 11:13:19 0.0001773782 159.0 (m) DEBRIS
FENGYUN 1C DEB SSO 2024-11-13 12:24:21 0.0001290538 403.0 (m) DEBRIS

Associated space launch

Chinese polar orbiting meteorological satellite

FENGYUN 1C DEB was lifted into orbit during the mission ‘Long March 4B | Feng Yun 1C’, on board a Long March 4B space rocket.

The launch took place on May 10, 1999, 1:33 a.m. from Launch Complex 7.

For more information about the launch, click the button.

Launch to space Long March 4B | Feng Yun 1C
Long March 4B | Feng Yun 1C

Agency: N/A

Status: Launch Successful

Launch date: May 10, 1999, 1:33 a.m. UTC

Rocket: Long March 4B

Launch pad: Launch Complex 7

Location: Taiyuan Satellite Launch Center, People's Republic of China

...

Latest news about this satellite

There are no fresh news available about this satellite. Check back as we update our databases every day.


Newsletter sign-up

Weekly statistics, charts and insights to help you stay on top of the space industry.